Regional Weather Roundup
Issued by NWS

Home | Current Version | Previous Version | Text Only | Print | Product List | Glossary On
Versions: 1 2 3 4 5 6 7 8 9 10 11 12 13 14 15 16 17 18 19 20 21 22 23 24 25 26 27 28 29 30 31 32 33 34 35 36 37 38 39 40 41 42 43 44 45 46 47 48 49 50
000
ASUS43 KMKX 291521
RWRWI

WISCONSIN REGIONAL WEATHER ROUNDUP
NATIONAL WEATHER SERVICE MILWAUKEE/SULLIVAN WI
1000 AM CDT FRI JUL 29 2016

NOTE: "FAIR" INDICATES FEW OR NO CLOUDS BELOW 12,000 FEET WITH NO
SIGNIFICANT WEATHER AND/OR OBSTRUCTIONS TO VISIBILITY.

WIZ001-002-006>008-014>016-023>028-291600-
NORTHWEST WISCONSIN

CITY           SKY/WX    TMP DP  RH WIND       PRES   REMARKS
SUPERIOR ARPT  SUNNY     67  56  68 E7        30.11S
ASHLAND        SUNNY     68  56  65 NE12      30.12S
HAYWARD        SUNNY     67  55  65 NE9       30.11S
SIREN          NOT AVBL
CUMBERLAND     SUNNY     64  50  59 NE8       30.09S
RICE LAKE      SUNNY     66  53  62 NE6       30.10S
CHETEK         SUNNY     66  53  61 NE5       30.08S
LADYSMITH      SUNNY     67  54  62 NE8       30.10S
EAU CLAIRE     SUNNY     69  55  60 NE5       30.06S
MENOMONIE      CLOUDY    69  53  55 CALM      30.07S
NEW RICHMOND   SUNNY     69  49  48 E9        30.09R
OSCEOLA        SUNNY     68  53  57 NE8       30.11S
$$

WIZ003>005-009-010-017-018-291600-
NORTH CENTRAL WISCONSIN

CITY           SKY/WX    TMP DP  RH WIND       PRES   REMARKS
MANITOWISH WTR SUNNY     66  56  70 NE7       30.10F
ARBOR VITAE    SUNNY     67  57  69 N5        30.10S
WOODRUFF       SUNNY     67  57  69 N5        30.10S
RHINELANDER    SUNNY     67  55  65 NE5       30.09F
EAGLE RIVER    SUNNY     66  54  66 N5        30.10S
LAND O LAKES   SUNNY     66  56  68 NE5       30.11F
PHILLIPS       SUNNY     67  55  66 E5        30.09S
TOMAHAWK       SUNNY     67  55  64 E5        30.09S
MEDFORD        SUNNY     66  55  67 E5        30.08S
MERRILL        CLOUDY    68  57  67 CALM      30.08S
$$

WIZ029-030-035-036-043>047-291600-
CENTRAL WISCONSIN

CITY           SKY/WX    TMP DP  RH WIND       PRES   REMARKS
WAUSAU         SUNNY     69  60  73 E8        30.05S
MOSINEE          N/A     68  63  83 NE7       30.07S
MARSHFIELD     MOSUNNY   69  60  73 E8        30.06R
STEVENS POINT  CLOUDY    64  60  84 E8        30.06S
WAUPACA        CLOUDY    66  63  90 NE3       30.05R
WAUTOMA        CLOUDY    62  60  93 NE7       30.04S
WISC RAPIDS    CLOUDY    67  58  72 E6        30.06S
CAMP DOUGLAS   CLOUDY    64  59  82 NE6       30.03F
$$

WIZ011>013-019>022-031-037>040-048>050-291600-
NORTHEAST WISCONSIN

CITY           SKY/WX    TMP DP  RH WIND       PRES   REMARKS
ANTIGO         SUNNY     67  59  75 CALM      30.08S
SHAWANO        CLOUDY    68  61  78 NE6       30.06S
OCONTO         CLOUDY    66  66 100 CALM      30.04S
STURGEON BAY   CLOUDY    73  61  64 VRB6      30.06R
GREEN BAY      CLOUDY    67  65  93 N8        30.03S
MANITOWOC      CLOUDY    70  63  78 MISG      30.03R
APPLETON       CLOUDY    64  63  94 VRB5      30.02R
CLINTONVILLE   CLOUDY    66  59  77 NE6       30.05R
OSHKOSH        CLOUDY    68  64  87 NE8       30.02R
$$

WIZ032>034-041-042-053>061-291600-
SOUTHWEST WISCONSIN

CITY           SKY/WX    TMP DP  RH WIND       PRES   REMARKS
LA CROSSE      CLOUDY    67  59  75 VRB6      30.02F
SPARTA         CLOUDY    68  60  74 NE7       30.04F
VIROQUA        CLOUDY    63  60  90 NE6       30.03S
BOSCOBEL       CLOUDY    66  61  84 E7        30.00S
PRAIRIE DU CHI CLOUDY    65  61  85 N7        30.00R
PLATTEVILLE    CLOUDY    67  66  96 NE9       29.99S
$$

WIZ056-057-062-063-064-067-068-291600-
SOUTH CENTRAL WISCONSIN

CITY           SKY/WX    TMP DP  RH WIND       PRES   REMARKS
REEDSBURG      CLOUDY    61  61 100 NE5       30.02S
BARABOO/DELLS  DRIZZLE   61  58  92 CALM      30.02S
LONE ROCK      CLOUDY    65  61  87 NE7       30.01S
MINERAL POINT  CLOUDY    66  64  94 NE8       30.00S
MADISON        LGT RAIN  66  64  93 NE7       29.99R
MIDDLETON      CLOUDY    66  65  97 NE8       30.00S
WATERTOWN      CLOUDY    71  68  89 NE10      29.98S
MONROE         CLOUDY    68  64  88 NE8       29.98S
JANESVILLE     CLOUDY    73  70  88 NE8       29.96R
$$

WIZ051-052-058>065-066-070>072-291600-
SOUTHEAST WISCONSIN

CITY           SKY/WX    TMP DP  RH WIND       PRES   REMARKS
MILWAUKEE      CLOUDY    72  65  78 E13       29.98R
WAUKESHA       CLOUDY    68  63  83 E9G17     29.99S
MILWAUKEE/TIMM CLOUDY    70  63  78 NE9       29.99S
RACINE         CLOUDY    73  65  75 E12       29.98S
BURLINGTON     CLOUDY    72  66  82 NE8       29.97R
KENOSHA        CLOUDY    73  66  78 E10       29.97R
FOND DU LAC    RAIN      68  65  90 NE7       30.02R FOG
SHEBOYGAN      CLOUDY    69  64  84 NE10      30.01S
WEST BEND      CLOUDY    68  63  83 E9        30.00S
JUNEAU         CLOUDY    70  65  84 NE8       30.01F
$$

LSZ147-162-291600-
LAKE SUPERIOR

STATION/POSITION TIME  TEMP    WIND        PRES    WAVE
                       AIR SEA DIR/SP/G            HT/PER
                 (UTC) (F)     (DEG/KT/KT) (MB)    (FT/S)
W MID LAKE BUOY  1450   62 61   50/  6/  6 1019.5S   0
DEVILS ISLAND    1500   64      60/  5/  6 1020.1S
SAXON HARBOR     1440   63      CALM  /  2 1019.6S
$$

LMZ867-665-643>646-291600-
LAKE MICHIGAN

STATION/POSITION TIME  TEMP    WIND        PRES    WAVE
                       AIR SEA DIR/SP/G            HT/PER
                 (UTC) (F)     (DEG/KT/KT) (MB)    (FT/S)
CHAMBERS ISLAND  1400   69      40/  7/ 11 1017.3S
N MID LAKE BUOY  1450   68 69   90/ 14/ 16 1016.8F   2/ 4
NORTHPORT PIER   1400   71     100/  8/ 10 1017.6R
SISTER BAY       1406   77      40/  4/  7   N/A
ALGOMA LAKESHORE 1443           60/  6/  7   N/A
KEWAUNEE LAKESHO 1400   64      40/  4/  6 1016.4R
SHEBOYGAN LAKESH 1500   65      30/  8/  9 1016.4R
PORT WASHINGTON  1400   68      40/  6/  8 1016.3
ATWATER BUOY     1500   67 63   80/ 10/ 12 1016.7
MILWAUKEE LAKESH 1410   67      40/ 10/ 11   N/A
S MID LAKE BUOY  1450   70 74   90/ 16/ 17 1013.7R   4/ 5
KENOSHA   LAKESH 1500   72      90/ 11/ 14 1014.2S
$$

TC  - TEMPERATURE IN CELSIUS
VSB - VISIBILITY IN STATUTE MILES
WCI - WIND CHILL INDEX
HX  - HEAT INDEX




USA.gov is the U.S. government's official web portal to all federal, state and local government web resources and services.